Location: Berville
(49.1893°N, 2.0748°E)
Time: 17:02:58
(UTC+00:00)

Cosmos 1943 Rocket - Pass Details

Date: 08 February 2023
Orbit: 811 x 844 km, 71.0° (Epoch: 29 March)

Event Time Altitude Azimuth Distance (km) Brightness Sun altitude
Rises 20:43:04 0° 327° (NNW) 3,413 6.0 -36.5°
Reaches altitude 10° 20:45:36 10° 322° (NW) 2,472 5.2 -36.8°
Enters shadow 20:48:53 32° 300° (WNW) 1,419 3.7 -37.3°
